Weather in Altan

Russia / Zabaykalsky Krai     49°30′40″N   111°32′08″E
temp.,
°C
wind,
m/s
gust,
m/s
humid.,
%
clouds,
%
prec.,
mm/h
press.,
hPa
HPBL,
m
10 may, mon
mon1000:00+4wnw1166100 0.0 101010
03:00+3wsw1170100 0.0 101010
06:00+2sw117520 0.0 100910
09:00+7ssw235385 0.0 1006400
12:00+13wsw4835100 0.0 10022158
15:00+14nw6934100 0.3 10022127
18:00+13nnw553451 0.0 10031914
21:00+6nne585692 0.0 1007406
11 may, tue
tue1100:00+4n1167100 0.0 100918
03:00+3nne1370100 0.1 1009288
06:00+2nw1387100 0.9 1009127
09:00+5n4757100 0.9 10081253
12:00+5nnw6859100 0.5 10091195
15:00+7nnw6744100 0.5 10091505
18:00+9nnw5638100 0.0 10091995
21:00+4nw33601 0.0 101246
12 may, wed
wed1200:000wnw22825 0.0 101523
03:000w22805 0.0 101420
06:00−1wsw22844 0.0 101418
09:00+6wnw25535 0.0 1012673
12:00+11nw463321 0.0 10092142
15:00+13wnw672643 0.0 10072846
18:00+12nw783047 0.0 10062264
21:00+7wnw224989 0.0 100710
13 may, thu
thu1300:00+5w115890 0.0 100910
03:00+3n1164100 0.0 100810
06:00+3nne1168100 0.0 100711
09:00+5ne2161100 0.1 1008691
12:00+3nne3685100 1.5 1009567
15:00+4nne4677100 1.9 1009801
18:00+3n5969100 1.8 10101025
21:00+2nw226497 1.8 101016
14 may, fri
fri1400:00−2wnw22815 0.0 101429
03:00−3wnw32760 0.0 101528
06:00−5w22765 0.0 101725
09:00+3nnw611515 0.0 10141168
12:00+7nnw79346 0.0 10131969
15:00+9nw6930100 0.0 10122702
18:00+10nw682598 0.0 10112664
21:00+5wnw36430 0.0 101487